Temp
19 19 19 19 19 19 20 20 20 20 21 21 22 22 23 23 24 23 22 28 28 28 28 28 28 27 26 25 25 22 23 23 27 26 27 23 25 24 26 25 26 25 24 24 22
19 19 19 19 20 20 20 20 20 20 21 22 22 23 23 23 23 21 29 29 28 28 28 27 25 25 23 26 25 23 22 26 26 25 28 23 24 24 26 25 26 25 23 22 21
19 19 20 20 20 20 20 20 21 21 22 22 23 23 23 23 22 27 29 29 29 28 28 27 26 26 26 26 27 24 26 26 27 25 26 25 25 25 25 25 25 25 22 22 21
20 20 20 20 20 21 21 21 21 22 22 23 23 23 24 23 27 29 29 30 29 28 28 27 25 25 25 27 27 28 26 27 27 27 24 23 25 26 26 26 26 26 23 22 21
20 21 21 21 21 21 21 22 22 22 23 23 23 23 24 22 24 29 29 29 28 28 27 27 26 25 26 26 26 28 29 27 25 24 26 25 26 27 25 27 26 25 23 22 21
21 21 21 22 22 22 22 22 22 23 23 23 23 23 23 25 29 29 29 29 29 28 27 26 27 26 27 27 27 28 26 24 27 26 27 27 28 27 27 26 25 24 23 22 22
21 22 22 22 22 22 22 22 23 23 23 23 23 23 21 24 30 29 29 29 29 29 27 27 27 28 27 27 26 26 27 26 29 28 29 26 28 26 25 25 24 23 23 23 22
22 22 23 23 23 23 23 23 23 23 24 24 23 22 21 29 30 30 30 30 30 29 28 28 28 27 27 26 25 26 24 25 27 26 28 28 26 26 24 24 23 23 23 23 22
22 23 23 24 24 24 24 24 24 24 24 24 23 22 24 29 30 30 31 30 31 30 30 29 27 24 24 24 23 21 25 26 25 25 27 27 26 24 23 25 23 23 23 22 19
22 23 24 24 24 24 25 24 24 24 23 23 22 23 27 28 30 31 31 30 30 29 27 26 21 23 20 21 24 25 25 24 25 26 22 23 21 20 22 23 21 21 21 19 19
23 24 24 25 25 25 25 24 21 22 22 26 26 27 26 29 29 30 31 30 29 26 26 24 23 24 24 25 25 26 25 25 26 26 22 21 20 20 19 20 20 20 19 18 17
24 24 25 25 26 26 26 23 25 24 22 23 24 24 26 28 27 28 30 29 28 27 26 24 25 26 24 25 26 26 26 25 25 25 23 22 21 21 20 19 18 19 18 17 16
24 25 25 26 27 26 25 25 24 24 22 24 25 25 28 27 28 28 29 28 28 27 26 26 28 27 26 26 26 26 26 26 26 25 23 24 23 20 21 19 18 17 18 17 17
24 25 26 26 26 26 26 26 26 25 20 25 27 29 28 29 29 30 30 30 28 28 26 27 27 28 26 27 25 27 27 27 26 24 23 22 21 20 18 18 17 16 16 16 16
24 25 26 26 26 25 27 26 26 25 23 28 29 30 28 28 30 30 30 29 29 28 26 27 26 26 26 27 27 27 26 24 24 22 22 21 20 19 19 19 16 16 16 15 15
24 26 26 26 26 27 27 27 26 22 25 27 29 29 29 28 29 29 29 26 27 27 26 26 26 27 27 27 26 25 25 21 18 18 20 21 20 19 18 20 18 16 16 15 15
24 26 26 26 25 27 27 23 21 22 26 27 28 28 28 28 28 29 27 24 24 26 25 25 26 25 26 25 24 22 20 19 20 19 20 19 19 18 20 20 18 15 15 15 14
25 26 25 24 25 26 26 21 24 25 25 27 26 26 27 26 27 26 25 23 23 23 21 23 24 25 26 26 25 24 20 19 21 19 20 19 19 19 18 16 16 15 13 12 11
25 25 25 24 25 26 19 20 22 25 26 26 26 24 24 25 26 24 23 23 24 23 24 22 24 24 26 25 25 24 22 20 18 17 17 18 20 20 17 16 15 14 12 10 10
22 22 23 24 25 25 18 20 22 23 25 26 26 25 24 24 24 23 23 24 25 22 22 23 22 23 23 24 23 23 21 20 16 20 20 18 19 17 17 15 14 12 10 10 9
21 19 24 25 25 17 19 20 22 24 25 26 25 25 25 25 25 24 24 25 25 23 21 21 21 22 22 21 20 19 19 18 17 16 18 17 17 17 16 14 12 10 10 9 9
14 19 24 24 19 13 19 21 22 24 24 25 24 25 25 24 24 24 24 23 23 24 22 19 17 20 21 21 21 22 20 17 15 18 15 14 15 14 15 12 11 11 11 10 10
10 11 23 22 19 17 18 22 23 23 22 23 24 24 23 22 23 23 23 22 21 22 22 20 17 16 18 19 20 20 20 19 15 14 16 16 17 15 13 13 12 10 11 11 10
11 15 14 12 13 18 17 19 21 22 22 21 21 22 22 20 19 21 21 21 21 20 18 17 15 17 17 19 18 19 19 19 17 14 16 16 17 15 13 12 12 11 11 11 11
10 13 13 14 15 15 17 18 19 20 21 20 21 20 22 21 20 20 20 21 22 20 19 17 19 18 19 18 19 19 17 17 17 16 15 15 16 14 13 13 13 12 11 11 10
11 11 11 13 13 16 14 17 18 19 19 21 20 19 20 20 21 20 21 20 21 21 20 15 18 18 18 19 18 19 16 17 16 16 16 15 14 13 13 13 13 13 11 11 11
11 11 11 12 14 15 15 17 18 17 20 19 20 19 19 20 20 20 20 19 20 21 18 17 15 15 17 16 17 16 16 16 16 15 15 14 15 14 14 13 13 12 11 10 9
Height
803 802 802 802 802 802 802 801 801 800 799 798 796 793 790 787 783 780 779 777 778 779 779 777 776 777 777 779 779 783 815 825 808 809 803 798 800 795 788 797 793 792 794 795 804
802 802 802 802 802 802 802 801 800 800 799 797 795 792 789 785 780 779 776 776 777 778 777 777 777 776 782 781 783 795 819 808 792 791 790 796 794 795 797 799 798 795 795 796 803
802 802 802 802 802 801 801 801 800 799 798 796 794 792 789 784 782 776 776 775 776 777 777 777 776 776 782 782 785 793 805 790 783 780 779 786 790 786 795 805 793 790 795 796 803
803 803 803 802 802 802 801 800 799 798 797 796 794 792 787 784 800 776 776 776 776 777 777 776 776 783 790 792 784 794 785 782 774 773 780 786 778 786 786 783 778 781 785 793 799
803 803 803 802 801 801 800 799 799 798 797 795 794 791 787 789 784 776 776 776 777 776 776 776 781 785 793 790 786 788 781 777 774 776 774 774 777 779 781 773 771 779 786 790 798
803 802 802 801 800 800 799 798 798 797 796 795 793 791 791 796 775 775 775 776 776 776 776 776 778 779 785 786 788 782 783 783 772 774 772 778 778 777 770 772 776 779 785 790 793
802 802 801 801 800 799 798 797 796 795 795 794 793 792 792 785 775 774 774 775 774 775 775 774 775 778 780 786 781 784 790 783 774 771 772 773 786 785 771 769 777 780 783 787 793
802 801 800 800 799 798 797 796 795 794 793 793 792 792 791 776 775 773 773 773 773 773 773 773 774 777 781 781 790 797 802 814 783 781 774 775 802 772 771 772 779 779 782 787 794
803 801 800 799 798 796 795 794 792 792 792 792 793 793 791 776 773 772 772 772 772 772 772 773 774 786 787 802 814 816 821 813 805 787 785 785 796 786 777 776 780 781 783 789 799
803 800 799 797 796 795 793 791 789 791 792 792 793 797 779 780 773 772 772 772 774 772 775 778 790 801 812 817 837 821 820 816 815 798 800 801 807 800 786 784 790 792 793 800 802
803 800 797 796 795 793 791 790 794 795 792 789 787 786 780 776 773 771 772 773 774 781 796 791 808 815 805 802 802 805 812 815 803 793 808 816 815 807 798 792 798 797 802 805 806
803 799 797 795 793 792 791 792 795 796 799 781 783 783 778 778 781 771 772 780 783 799 793 805 812 796 795 797 800 804 811 814 805 797 804 812 816 810 804 803 802 804 801 802 808
802 799 796 794 793 792 792 793 792 792 802 786 779 779 776 777 781 777 772 778 787 796 801 809 797 788 794 801 805 807 810 809 810 804 806 809 818 818 809 809 804 803 801 806 809
802 798 795 793 795 792 792 791 788 788 821 798 784 776 774 773 782 770 771 777 786 797 801 801 792 793 801 802 806 814 799 802 805 817 832 817 845 826 823 820 815 814 812 812 814
802 797 795 793 793 794 794 790 788 789 848 790 782 770 772 782 778 776 771 775 793 794 800 807 802 803 807 804 798 807 799 808 810 823 826 830 841 834 824 824 826 822 818 816 817
800 796 794 793 793 793 791 788 789 826 836 798 780 783 785 782 781 776 777 776 782 795 798 801 792 796 798 795 797 800 805 820 831 837 849 833 839 840 833 823 825 825 823 822 822
799 794 792 792 793 792 789 789 831 839 799 804 795 787 791 795 790 787 797 808 815 820 823 811 805 799 796 807 803 812 831 857 854 861 857 838 843 838 821 817 821 827 826 828 828
797 792 791 792 792 791 790 811 833 814 811 792 795 795 802 798 798 798 808 821 812 817 836 835 837 810 801 807 815 814 830 857 856 864 853 836 845 835 822 823 824 829 833 836 837
795 792 793 792 791 791 802 837 831 813 804 805 799 812 813 804 802 810 819 821 816 816 829 837 830 809 802 803 807 817 831 826 850 856 860 849 831 824 826 829 831 837 840 844 845
797 795 795 792 792 792 818 831 819 805 800 800 814 809 822 816 815 817 821 814 814 814 812 824 840 817 810 805 809 815 821 841 854 853 857 852 842 841 835 836 838 843 847 848 847
800 802 797 792 793 805 830 826 813 798 798 803 809 812 814 815 814 820 821 813 809 813 815 824 836 832 820 827 834 836 839 844 851 858 862 865 851 828 830 835 841 848 850 851 850
809 815 798 793 814 832 827 817 807 801 797 797 801 806 812 815 818 819 821 819 811 811 825 829 844 848 834 823 822 822 835 848 868 856 863 868 855 833 829 837 843 846 848 852 852
827 824 801 797 828 832 822 814 809 809 808 806 808 805 807 819 825 820 818 817 815 817 823 827 849 866 852 842 830 834 832 837 850 861 858 863 846 834 837 841 846 851 851 853 854
829 833 820 816 830 828 832 827 820 809 812 811 812 809 815 826 827 828 827 821 816 821 824 829 851 853 865 851 844 842 838 835 844 862 852 849 838 842 847 849 851 855 855 854 859
837 843 842 845 836 837 832 830 829 825 814 814 816 820 818 829 830 833 829 825 820 821 825 832 844 844 840 840 838 838 843 841 841 848 852 848 841 847 848 848 848 853 857 855 854
844 847 843 844 842 836 840 837 834 828 825 822 824 825 822 831 829 833 830 830 829 824 828 838 845 842 843 837 840 838 844 841 844 844 845 847 853 851 851 851 851 851 851 853 854
845 845 845 849 844 842 844 838 834 832 823 823 823 827 829 826 823 822 822 824 824 827 835 838 849 856 854 846 842 855 849 847 847 848 847 854 852 852 850 853 855 857 856 856 857
Wind_Speed
4 4 3 3 2 2 3 5 6 7 8 9 12 15 19 22 24 13 5 2 3 3 8 9 2 5 1 2 1 3 4 1 3 2 4 4 5 3 3 5 3 7 5 8 25
4 3 2 1 2 3 4 5 6 7 8 10 13 17 19 26 16 7 3 2 1 5 6 6 5 6 3 2 2 4 4 5 5 5 3 9 7 10 6 6 3 3 9 28 26
3 2 2 2 3 4 5 6 7 7 9 11 14 17 22 17 3 3 6 2 6 4 4 4 3 2 4 3 1 2 4 4 7 10 7 5 7 6 9 6 8 18 14 21 24
2 2 3 3 4 5 6 6 7 8 9 11 14 17 20 5 2 3 7 3 4 3 3 4 5 4 3 3 2 1 6 5 6 3 6 7 8 6 12 10 8 15 21 18 18
3 4 4 5 5 6 7 7 8 9 10 11 13 16 8 5 6 7 4 0 2 3 1 2 4 2 3 3 3 0 4 6 10 5 2 7 8 6 12 5 10 14 17 20 17
4 5 5 6 7 7 8 8 9 10 10 11 12 12 3 3 4 7 4 2 4 3 1 3 1 2 2 1 2 4 5 9 6 3 4 3 1 6 9 6 11 16 16 17 18
4 4 5 6 7 8 9 9 10 10 11 10 10 7 1 10 3 11 7 5 7 4 3 3 4 2 1 6 3 4 7 8 4 6 0 8 2 10 4 11 12 13 14 15 15
5 4 5 6 7 8 9 9 9 10 10 9 7 3 6 5 9 12 10 9 10 11 8 8 5 3 1 3 6 4 5 5 7 8 1 4 10 13 8 14 13 13 12 13 10
9 6 5 6 7 8 9 11 12 9 6 5 2 1 8 8 8 7 6 6 10 5 4 2 3 3 5 4 5 7 1 3 10 7 4 4 5 8 4 6 10 10 11 10 9
15 9 7 8 9 10 12 13 2 2 0 2 1 2 5 4 7 7 4 6 2 4 5 7 6 3 4 4 1 3 3 5 4 5 9 6 8 8 6 10 6 5 4 7 7
19 13 9 9 10 11 12 1 5 3 2 5 4 3 6 9 8 1 1 5 2 7 2 4 5 3 7 5 4 2 1 2 4 5 6 4 6 11 9 9 6 6 6 6 6
23 17 11 10 10 10 8 5 1 3 6 8 4 5 9 3 3 3 4 3 2 2 3 6 4 5 4 4 4 3 3 4 4 5 6 2 7 5 11 6 5 2 9 12 8
26 20 13 10 8 5 3 5 14 4 1 6 4 4 4 8 4 5 4 1 1 4 3 4 4 2 5 4 6 2 3 2 4 4 5 3 4 6 4 7 10 9 5 6 9
28 22 13 9 3 7 2 17 13 9 4 5 2 4 4 2 3 2 5 4 2 2 3 2 5 3 6 3 3 2 2 2 3 3 2 3 4 5 7 9 10 9 8 9 10
30 23 12 5 3 2 9 19 2 2 4 3 2 1 1 6 2 3 2 4 2 2 5 4 6 5 6 3 0 3 3 2 2 2 3 7 4 5 4 5 5 6 5 6 7
31 23 10 2 3 4 16 12 1 5 1 4 1 1 3 3 2 3 3 7 1 4 4 2 4 4 1 1 3 3 1 5 4 2 2 3 4 4 2 1 2 3 5 6 8
31 19 7 2 0 10 15 4 5 3 3 5 2 1 3 1 3 1 4 6 3 3 4 5 3 5 3 5 5 9 7 4 5 5 4 4 2 6 4 4 3 6 5 6 9
30 12 6 5 8 7 5 5 2 2 4 5 4 2 4 4 3 3 3 3 5 4 3 1 5 4 6 2 4 3 6 5 5 3 5 3 4 4 3 6 9 7 7 11 11
26 9 8 17 2 4 5 4 6 2 4 6 4 6 6 5 3 4 4 2 3 2 4 2 4 5 3 3 1 2 2 1 5 3 2 3 2 2 5 6 7 8 10 9 9
16 8 6 15 3 5 5 3 3 3 4 2 2 1 4 6 4 4 3 2 2 3 2 2 2 2 6 4 4 3 2 3 4 1 4 4 4 5 5 5 6 7 8 7 5
7 4 12 8 2 5 3 4 4 5 4 1 2 2 1 1 2 2 1 1 1 3 7 2 3 6 3 4 2 5 5 4 3 3 3 3 5 3 6 6 9 7 7 6 5
5 3 16 5 4 1 2 2 5 5 5 3 3 3 2 2 3 2 3 3 6 2 3 1 4 2 5 3 3 2 3 4 4 5 1 2 6 5 6 8 9 10 8 3 6
2 3 9 8 2 3 5 3 3 7 5 6 3 3 3 3 3 4 3 3 6 3 3 3 2 3 8 6 5 4 2 3 3 3 4 2 5 4 7 8 6 6 6 5 5
3 4 4 5 1 2 5 4 5 6 3 3 3 4 5 5 6 2 4 5 3 4 7 6 3 6 5 7 3 4 5 3 4 2 3 6 4 1 6 6 6 5 4 3 2
4 1 2 3 5 4 1 3 5 6 6 7 5 5 2 3 2 3 4 5 4 3 3 4 2 3 4 5 2 4 5 5 2 3 4 6 1 3 4 5 5 4 2 5 4
2 3 4 2 3 4 6 5 5 6 5 5 5 4 3 4 2 2 2 2 2 4 2 3 1 1 3 2 5 1 6 3 4 3 3 5 5 0 3 4 4 9 10 4 1
4 1 3 4 4 3 3 4 5 5 4 6 2 3 6 3 1 1 3 3 5 4 3 2 5 3 4 3 3 3 4 4 3 6 2 4 3 1 2 2 1 3 2 2 4
Wind_Direction
326 327 322 321 324 329 337 342 344 344 340 337 338 336 335 330 325 317 259 172 77 312 342 340 68 339 89 78 100 137 64 216 249 201 156 173 178 181 181 135 207 169 149 152 158
347 346 344 342 336 335 335 337 337 334 334 337 338 337 335 330 326 280 345 218 219 335 334 7 337 353 55 79 18 85 99 227 207 202 176 184 180 158 144 155 217 99 80 132 151
7 1 347 340 334 331 331 331 330 330 332 337 336 336 334 334 330 274 11 346 233 294 318 319 319 47 56 9 150 148 175 214 247 225 172 185 154 171 133 205 212 182 156 151 155
338 327 318 316 316 320 324 325 326 325 328 332 333 337 335 344 117 24 12 29 187 257 322 1 8 45 73 61 313 343 245 221 279 220 142 170 150 185 179 199 180 174 164 153 166
301 297 298 305 313 318 321 323 321 320 323 327 331 340 350 3 256 341 338 208 213 267 28 30 32 100 39 312 332 189 308 316 298 298 241 147 185 187 210 194 159 153 158 166 168
301 301 305 313 316 317 321 321 318 315 313 318 326 337 5 324 324 356 347 270 266 283 256 182 170 223 174 280 130 311 285 294 308 109 141 133 267 154 234 148 138 151 166 170 174
322 313 312 312 314 318 321 320 313 307 305 311 316 330 68 239 289 327 320 280 279 273 288 235 179 103 29 342 336 325 341 348 328 337 21 135 347 240 116 154 151 164 170 173 178
6 339 321 318 323 323 323 317 311 303 300 300 304 323 255 301 292 297 280 293 293 289 267 295 184 110 38 318 13 35 52 21 296 3 36 110 241 251 154 154 168 176 175 179 171
19 360 335 327 323 319 318 310 300 291 285 288 290 97 279 319 325 338 256 270 312 302 310 170 103 73 23 58 9 11 350 324 328 14 320 45 297 321 60 192 174 177 180 164 121
18 1 338 328 320 325 322 316 309 218 161 121 242 346 287 304 318 309 276 234 318 326 14 38 45 56 39 69 248 299 339 312 247 338 34 29 348 330 5 84 80 69 112 101 129
16 5 342 329 328 333 341 109 17 7 174 205 214 236 275 315 304 274 230 130 46 52 16 1 54 288 275 188 172 194 144 290 283 348 79 4 41 15 354 45 59 137 102 118 114
13 7 350 334 336 341 26 75 131 252 312 240 245 272 274 274 308 301 148 103 63 352 342 23 5 285 245 136 103 93 74 333 299 8 90 337 38 341 32 16 341 246 165 154 138
7 5 357 344 340 11 50 40 334 271 151 298 193 199 220 152 224 273 128 101 116 32 24 113 277 3 80 66 77 41 122 276 239 3 38 3 348 357 8 20 15 27 119 79 127
3 360 358 351 92 347 354 346 340 152 58 288 287 275 148 210 299 210 182 129 35 47 146 272 348 34 51 86 128 12 261 322 304 52 274 19 267 335 354 8 25 21 68 89 100
358 354 353 360 343 15 325 341 32 89 51 279 263 227 86 134 270 15 91 58 51 22 83 288 0 42 55 350 326 236 47 52 9 91 56 345 80 263 1 9 1 2 54 87 112
354 349 345 330 290 334 339 340 101 42 294 349 298 105 76 14 328 336 63 38 89 86 9 43 311 56 295 10 26 18 52 45 54 93 43 288 114 284 302 195 167 47 52 80 91
349 345 341 298 268 339 340 47 41 114 327 327 330 42 118 295 311 61 53 22 55 27 355 347 355 321 39 28 9 41 44 338 348 2 230 311 55 243 294 13 149 137 100 69 58
346 347 352 22 293 328 9 51 105 304 300 314 21 66 84 356 11 44 63 62 26 73 71 75 328 18 340 130 235 284 147 163 248 219 263 331 248 255 57 81 89 75 65 65 62
348 11 37 351 31 356 70 71 200 199 316 325 340 51 357 6 77 68 54 100 34 15 119 54 306 318 47 314 46 335 254 177 110 29 39 259 294 353 89 82 87 83 72 68 74
345 343 21 356 94 55 71 227 239 223 349 348 98 61 57 342 56 60 18 271 118 52 152 164 344 339 305 21 29 65 164 360 10 252 270 291 279 232 182 163 118 104 103 104 97
5 40 359 5 83 49 132 238 278 259 239 171 169 95 68 57 70 85 220 355 36 36 58 89 98 293 5 36 340 358 11 29 115 122 199 290 265 216 225 169 141 119 123 127 120
10 50 353 19 51 36 133 216 299 330 357 12 91 102 111 40 58 76 99 53 343 35 56 357 131 287 266 300 231 68 118 112 106 297 213 179 267 336 161 137 133 141 146 107 56
36 271 349 359 98 344 311 315 328 350 352 356 54 52 43 69 82 43 69 8 15 70 140 181 25 17 348 355 3 52 354 124 116 88 227 167 277 46 79 93 77 99 105 85 60
36 8 332 37 23 71 8 348 338 346 30 36 29 59 72 47 24 93 32 0 14 76 67 82 119 151 190 229 207 305 317 344 141 154 240 233 249 136 53 79 89 90 89 83 305
28 344 187 354 343 13 6 346 342 359 5 25 29 35 100 100 59 58 8 360 34 12 64 97 188 191 259 261 271 259 338 330 102 285 188 322 70 105 131 129 132 141 127 197 200
71 34 356 346 297 8 4 9 3 329 12 353 86 24 53 94 98 140 50 38 292 350 55 9 230 165 278 15 14 38 7 71 37 5 66 33 44 61 95 103 152 181 208 208 173
30 70 106 318 347 61 335 307 334 315 26 54 36 53 49 49 212 258 203 210 218 197 211 159 140 107 262 350 337 13 16 72 77 31 31 49 328 329 131 144 226 293 252 82 11